Weather observations for the past three days for
Platinum
Imperial (Metric)
Date Time (akdt) Wind (mph) Vis. (mi.) Weather Sky Cond. Temperature (ºF) Relative Humidity Wind Chill (°F) Heat Index (°F) Pressure Precipitation (in)
Air Dwpt 6 hour altimeter (in) sea level (mb) 1 hr 3 hr 6 hr
Max. Min.
14 00:56 SW 7 10.00 Overcast FEW021 OVC029 44.1 37.9 79% 41 29.5 999.2
13 23:56 SW 13 10.00 Overcast OVC019 44.1 37.9 79% 38 29.5 999.3
13 22:56 SW 8 10.00 Overcast OVC021 44.1 37.9 79% 40 29.51 999.3
13 21:56 SW 8 10.00 Overcast FEW011 OVC019 44.1 41 46 44.1 89% 40 29.5 999.3
13 20:56 W 12 10.00 Overcast OVC016 44.1 39 83% 39 29.51 999.4
13 19:56 SW 12 10.00 Overcast OVC020 45 39.9 83% 40 29.52 999.7
13 18:56 W 14 10.00 Overcast BKN014 OVC019 46 42.1 86% 40 29.52 999.7
13 17:56 W 10 10.00 Light Rain BKN014 BKN032 OVC041 44.1 41 89% 39 29.52 999.9
13 16:56 SW 16 10.00 Light Rain BKN014 OVC025 44.1 41 89% 37 29.52 1000.0
13 15:56 W 18 10.00 Light Rain BKN012 OVC020 44.1 42.1 45 43 93% 37 29.53 1000.0
13 14:56 W 16 10.00 Overcast FEW009 BKN014 OVC032 45 42.1 90% 38 29.53 1000.1
13 13:56 W 13 10.00 Overcast SCT011 BKN022 OVC036 45 41 86% 39 29.53 1000.3
13 12:56 SW 13 10.00 Overcast SCT012 OVC017 44.1 41 89% 38 29.54 1000.6
13 11:56 W 14 2.00 Light Rain Fog/Mist OVC006 43 42.1 97% 37 29.55 1000.8
13 10:56 SW 10 4.00 Fog/Mist BKN006 BKN009 OVC021 44.1 43 96% 39 29.56 1001.2
13 09:56 S 9 8.00 Overcast SCT007 BKN011 OVC025 44.1 43 44.1 41 96% 40 29.57 1001.4
13 08:56 Vrbl 6 2.00 Light Rain Fog/Mist OVC007 42.1 42.1 100% 39 29.57 1001.6
13 07:56 S 6 5.00 Fog/Mist BKN007 OVC016 42.1 42.1 100% 39 29.58 1001.9
13 06:56 SW 7 10.00 Overcast OVC009 42.1 41 96% 38 29.59 1002.3
13 05:56 SW 9 7.00 Overcast OVC005 41 41 100% 36 29.6 1002.4
13 04:56 SW 8 10.00 Overcast OVC005 42.1 41 96% 38 29.6 1002.6
13 03:56 W 8 9.00 Overcast OVC005 42.1 41 44.1 42.1 96% 38 29.61 1002.8
13 02:56 SW 12 8.00 Overcast OVC005 42.1 42.1 100% 36 29.62 1003.1
13 01:56 SW 10 5.00 Fog/Mist OVC005 42.1 42.1 100% 37 29.62 1003.1
13 00:56 SW 10 3.00 Fog/Mist OVC005 43 43 100% 38 29.61 1002.9
12 23:56 SW 13 6.00 Fog/Mist OVC005 44.1 43 96% 38 29.6 1002.5
12 22:56 SW 15 5.00 Fog/Mist OVC003 43 43 100% 36 29.59 1002.1
12 21:56 SW 13 6.00 Fog/Mist OVC003 43 43 48 43 100% 37 29.58 1001.9
12 20:56 SW 16 2.00 Fog/Mist OVC003 44.1 44.1 100% 37 29.56 1001.1
12 19:56 SW 15 5.00 Fog/Mist OVC003 46 45 96% 40 29.54 1000.6
12 18:56 SW 15 3.00 Fog/Mist OVC005 46.9 46 97% 41 29.52 999.9
12 17:56 SW 16 2.50 Fog/Mist OVC005 48 46.9 96% 42 29.5 999.2
12 16:56 SW 13 7.00 Overcast OVC003 48 46 93% 43 29.48 998.6
12 15:56 SW 20 1.50 Fog/Mist OVC005 48 46.9 51.1 48 96% 42 29.46 997.8 0.02
12 14:56 S 17 8.00 Overcast OVC007 48.9 46.9 93% 43 29.44 997.2
12 13:56 S 16 10.00 Overcast BKN005 OVC021 50 48.9 96% 45 29.42 996.5
12 12:56 S 17 6.00 Light Rain Fog/Mist BKN009 OVC013 50 48.9 96% 45 29.41 996.2 0.02
Date Time (akdt) Wind (mph) Vis. (mi.) Weather Sky Cond. Air Dwpt Max. Min. Relative Humidity Wind Chill (°F) Heat Index (°F) altimeter (in) sea level (mb) 1 hr 3 hr 6 hr
6 hour
Temperature (ºF) Pressure Precipitation (in)